Location: Guayaquil
(2.1667°S, 79.9000°W)
Time: 03:24:16
(UTC-05:00)

DNEPR OBJECT AB - Visible Passes

Search period start: 28 May 2017 00:00
Search period end: 07 June 2017 00:00
Orbit: 588 x 704 km, 97.6° (Epoch: 27 May)

Date Brightness Start Highest point End Pass type
(mag) Time Alt. Az. Time Alt. Az. Time Alt. Az.
28 May ? 20:09:58 52° W 20:09:58 52° W 20:13:57 10° NNW visible
29 May ? 18:57:53 12° E 18:58:48 13° E 19:00:46 10° NE visible
29 May ? 20:35:35 21° W 20:35:35 21° W 20:38:26 10° NW visible
30 May ? 19:23:30 29° E 19:24:10 30° ENE 19:27:48 10° NNE visible
31 May ? 19:49:08 69° SE 19:49:30 76° ENE 19:53:38 10° N visible
01 Jun ? 20:14:46 42° WSW 20:14:50 42° WSW 20:18:46 10° NNW visible
02 Jun ? 19:02:41 15° E 19:03:44 16° ENE 19:06:16 10° NE visible
02 Jun ? 20:40:23 18° W 20:40:23 18° W 20:43:01 10° WNW visible
03 Jun ? 19:28:18 33° ESE 19:29:04 37° E 19:32:54 10° NNE visible
04 Jun ? 19:53:55 69° S 19:54:25 88° WSW 19:58:35 10° NNW visible
05 Jun ? 20:19:32 34° WSW 20:19:44 35° WSW 20:23:33 10° NW visible
06 Jun ? 19:07:26 17° ESE 19:08:39 19° ENE 19:11:38 10° NNE visible
06 Jun ? 20:45:09 15° W 20:45:09 15° W 20:47:30 10° WNW visible
